カタログに戻る

CMS 03

運用中通信GEO
NORAD 66311·PAYLOAD·🇮🇳 India

打ち上げ Nov 2, 2025 から Satish Dhawan Space Centre

Loading…

TLE

最新Source: Space-Track

元期: Sep 14, 2026, 14:09 UTC

1 66311U 25249B   26257.58974774 -.00000085  00000-0  00000-0 0  9996
2 66311   0.0531 267.3053 0000761 221.1687 151.3704  1.00272381  3249

AllMySatでCMS 03をリアルタイム追跡

Download on the App Store